Istanbul, Turkey

5:44 PM +03 on May 30, 2017 (GMT +0300)
Ataturk

Weather History for LTBA - December, 2012

Change the Weather History Date:

Wednesday, December 26, 2012

  Actual Average Record
Temperature  
Mean Temperature 52 °F -  
Max Temperature 56 °F 46 °F 62 °F (2010)
Min Temperature 47 °F 38 °F 30 °F (2006)
Degree Days  
Heating Degree Days 14    
Growing Degree Days 2 (Base 50)    
Moisture  
Dew Point 42 °F    
Average Humidity 67    
Maximum Humidity 82    
Minimum Humidity 43    
Precipitation  
Precipitation 0.00 in - - ()
Sea Level Pressure  
Sea Level Pressure 30.17 in    
Wind  
Wind Speed 9 mph ()    
Max Wind Speed 14 mph    
Max Gust Speed -    
Visibility 6.0 miles    
Events      
Averages and records for this station are not official NWS values.
T = Trace of Precipitation, MM = Missing Value Source: Averaged Metar Reports

Daily Weather History Graph

Daily Weather History Graph

Search for Another Location

Airport or City:

Trip Planner

Search our weather history database for the weather conditions in past years. The results will help you decide how hot, cold, wet, or windy it might be!

Date:

Astronomy

Dec. 26, 2012 Rise Set
Actual Time 7:28 AM EET 4:42 PM EET
Civil Twilight 6:57 AM EET 5:13 PM EET
Nautical Twilight 6:22 AM EET 5:48 PM EET
Astronomical Twilight 5:49 AM EET 6:21 PM EET
Moon 3:21 PM EET (12/26) 5:35 AM EET (12/26)
Length of Visible Light 10h 16m
Length of Day
9h 14m
Waxing Gibbous, 96% of the Moon is Illuminated
Dec 26
Waxing Gibbous
Dec 28
Full
Jan 5
Last Quarter
Jan 11
New
Jan 19
First Quarter

Hourly Weather History & Observations

Time (EET) Temp. Dew Point Humidity Pressure Visibility Wind Dir Wind Speed Gust Speed Precip Events Conditions
12:20 AM 48.2 °F 42.8 °F 82% 30.21 in - WSW 8.1 mph - N/A   Clear
12:50 AM 50.0 °F 42.8 °F 76% 30.21 in - WSW 9.2 mph - N/A   Clear
1:20 AM 50.0 °F 42.8 °F 76% 30.21 in - WSW 9.2 mph - N/A   Clear
1:50 AM 50.0 °F 42.8 °F 76% 30.21 in - WSW 9.2 mph - N/A   Clear
2:00 AM 49 °F 42 °F 71% 30.22 in 6 mi WSW 9.2 mph - -  
2:20 AM 50.0 °F 42.8 °F 76% 30.21 in - SW 11.5 mph - N/A   Clear
2:50 AM 50.0 °F 42.8 °F 76% 30.21 in - WSW 11.5 mph - N/A   Clear
3:20 AM 48.2 °F 42.8 °F 82% 30.18 in - WSW 10.4 mph - N/A   Clear
3:50 AM 48.2 °F 42.8 °F 82% 30.18 in - SW 9.2 mph - N/A   Clear
4:20 AM 50.0 °F 41.0 °F 71% 30.18 in - SW 10.4 mph - N/A   Clear
4:50 AM 50.0 °F 41.0 °F 71% 30.18 in - SW 11.5 mph - N/A   Clear
5:20 AM 50.0 °F 41.0 °F 71% 30.18 in - SW 12.7 mph - N/A   Clear
5:50 AM 50.0 °F 41.0 °F 71% 30.18 in - SW 13.8 mph - N/A   Clear
6:20 AM 50.0 °F 41.0 °F 71% 30.18 in - WSW 11.5 mph - N/A   Clear
6:50 AM 50.0 °F 41.0 °F 71% 30.18 in - WSW 10.4 mph - N/A   Clear
7:20 AM 50.0 °F 41.0 °F 71% 30.21 in - WSW 9.2 mph - N/A   Clear
7:50 AM 50.0 °F 42.8 °F 76% 30.18 in - WSW 10.4 mph - N/A   Clear
8:00 AM 49 °F 42 °F 70% 30.21 in 6 mi WSW 10.4 mph - -  
8:20 AM 50.0 °F 42.8 °F 76% 30.21 in - WSW 10.4 mph - N/A   Clear
8:50 AM 51.8 °F 42.8 °F 71% 30.21 in - WSW 9.2 mph - N/A   Clear
9:20 AM 51.8 °F 42.8 °F 71% 30.21 in - WSW 10.4 mph - N/A   Clear
9:50 AM 51.8 °F 42.8 °F 71% 30.21 in - WSW 9.2 mph - N/A   Clear
10:20 AM 51.8 °F 42.8 °F 71% 30.21 in - SW 9.2 mph - N/A   Clear
10:50 AM 53.6 °F 42.8 °F 67% 30.21 in - WSW 8.1 mph - N/A   Clear
11:20 AM 53.6 °F 42.8 °F 67% 30.21 in - WSW 9.2 mph - N/A   Clear
11:50 AM 53.6 °F 42.8 °F 67% 30.18 in - WSW 11.5 mph - N/A   Clear
12:20 PM 53.6 °F 41.0 °F 62% 30.18 in - WSW 11.5 mph - N/A   Clear
12:50 PM 55.4 °F 41.0 °F 58% 30.18 in - WSW 10.4 mph - N/A   Clear
1:20 PM 55.4 °F 41.0 °F 58% 30.15 in - WSW 10.4 mph - N/A   Clear
1:50 PM 57.2 °F 39.2 °F 51% 30.15 in - WSW 10.4 mph - N/A   Clear
2:00 PM 56 °F 40 °F 43% 30.17 in 6 mi WSW 10.4 mph - -  
2:20 PM 55.4 °F 41.0 °F 58% 30.15 in - WSW 8.1 mph - N/A   Clear
2:50 PM 55.4 °F 41.0 °F 58% 30.15 in - WSW 9.2 mph - N/A   Clear
3:20 PM 55.4 °F 41.0 °F 58% 30.15 in - WSW 8.1 mph - N/A   Clear
3:50 PM 55.4 °F 41.0 °F 58% 30.15 in - WSW 6.9 mph - N/A   Clear
4:20 PM 53.6 °F 41.0 °F 62% 30.15 in - West 6.9 mph - N/A   Clear
4:50 PM 51.8 °F 41.0 °F 67% 30.12 in - West 6.9 mph - N/A   Clear
5:20 PM 53.6 °F 41.0 °F 62% 30.12 in - West 8.1 mph - N/A   Clear
5:50 PM 53.6 °F 39.2 °F 58% 30.12 in - West 9.2 mph - N/A   Clear
6:20 PM 53.6 °F 41.0 °F 62% 30.12 in - West 8.1 mph - N/A   Clear
6:50 PM 53.6 °F 41.0 °F 62% 30.12 in - West 8.1 mph - N/A   Clear
7:20 PM 53.6 °F 41.0 °F 62% 30.12 in - West 6.9 mph - N/A   Clear
7:50 PM 51.8 °F 41.0 °F 67% 30.12 in - WSW 5.8 mph - N/A   Clear
8:00 PM 52 °F 42 °F 59% 30.14 in 6 mi WSW 5.8 mph - -  
8:20 PM 55.4 °F 41.0 °F 58% 30.12 in - SW 8.1 mph - N/A   Clear
8:50 PM 55.4 °F 42.8 °F 63% 30.12 in - SW 10.4 mph - N/A   Clear
9:20 PM 53.6 °F 42.8 °F 67% 30.12 in - SW 9.2 mph - N/A   Clear
9:50 PM 53.6 °F 41.0 °F 62% 30.12 in - SW 10.4 mph - N/A   Clear
10:20 PM 51.8 °F 42.8 °F 71% 30.12 in - WSW 10.4 mph - N/A   Clear
10:50 PM 53.6 °F 41.0 °F 62% 30.12 in - SW 10.4 mph - N/A   Clear
11:20 PM 53.6 °F 41.0 °F 62% 30.12 in - SW 11.5 mph - N/A   Clear
11:50 PM 53.6 °F 41.0 °F 62% 30.12 in - WSW 10.4 mph - N/A   Clear